Location: East Irvine
(33.6759°N, 117.7598°W)
Time: 00:45:18
(UTC+00:00)

Cosmos 2278 Rocket - Pass Details

Date: 15 November 2025
Orbit: 841 x 843 km, 71.0° (Epoch: 07 December)

Event Time Altitude Azimuth Distance (km) Brightness Sun altitude
Rises 01:16:31 0° 185° (S) 3,380 5.7 -6.3°
Reaches altitude 10° 01:19:00 10° 180° (S) 2,449 4.9 -6.8°
Maximum altitude 01:24:24 50° 106° (ESE) 1,066 2.4 -7.9°
Drops below altitude 10° 01:29:50 10° 32° (NNE) 2,462 4.2 -9.0°
Sets 01:32:20 0° 28° (NNE) 3,400 4.9 -9.5°
Enters shadow 01:32:25 - 28° (NNE) 3,427 5.0 -9.5°
